Sacramento / Mc Clellan, CA

4:08 AM PST on November 18, 2017 (GMT -0800)
McClellan

Weather History for KMCC - June, 2013

Change the Weather History Date:

Friday, June 7, 2013

  Actual Average (KMHR) Record (KMHR)
Temperature  
Mean Temperature 80 °F -  
Max Temperature 102 °F 83 °F 102 °F (2013)
Min Temperature 59 °F 53 °F 44 °F (2011)
Cooling Degree Days 16    
Growing Degree Days 30 (Base 50)    
Moisture  
Dew Point 57 °F    
Average Humidity 49    
Maximum Humidity 82    
Minimum Humidity 17    
Precipitation  
Precipitation 0.00 in - - ()
Sea Level Pressure  
Sea Level Pressure 29.77 in    
Wind  
Wind Speed 7 mph (West)    
Max Wind Speed 12 mph    
Max Gust Speed 20 mph    
Visibility 10 miles    
Events      
Averages and records for this station are not official NWS values.
T = Trace of Precipitation, MM = Missing Value Source: NWS Daily Summary

Daily Weather History Graph

Daily Weather History Graph

Search for Another Location

Airport or City:

Trip Planner

Search our weather history database for the weather conditions in past years. The results will help you decide how hot, cold, wet, or windy it might be!

Date:

Astronomy

Jun. 07, 2013 Rise Set
Actual Time 5:40 AM PDT 8:28 PM PDT
Civil Twilight 5:09 AM PDT 9:00 PM PDT
Nautical Twilight 4:29 AM PDT 9:39 PM PDT
Astronomical Twilight 3:44 AM PDT 10:24 PM PDT
Moon 5:06 AM PDT (6/7) 7:47 PM PDT (6/7)
Length of Visible Light 15h 50m
Length of Day
14h 47m
Waning Crescent, 1% of the Moon is Illuminated
Jun 7
Waning Crescent
Jun 8
New
Jun 16
First Quarter
Jun 23
Full
Jun 29
Last Quarter

Hourly Weather History & Observations

Time (PDT) Temp. Heat Index Dew Point Humidity Pressure Visibility Wind Dir Wind Speed Gust Speed Precip Events Conditions
12:15 AM 66.2 °F - 53.6 °F 64% 29.82 in 10.0 mi SSE 9.2 mph - N/A   Clear
12:35 AM 64.4 °F - 53.6 °F 68% 29.82 in 10.0 mi SSE 8.1 mph - N/A   Clear
12:55 AM 64.4 °F - 53.6 °F 68% 29.82 in 10.0 mi SSE 8.1 mph - N/A   Clear
1:15 AM 64.4 °F - 53.6 °F 68% 29.82 in 10.0 mi SSE 6.9 mph - N/A   Clear
1:35 AM 64.4 °F - 53.6 °F 68% 29.81 in 10.0 mi SSE 8.1 mph - N/A   Clear
1:55 AM 64.4 °F - 53.6 °F 68% 29.81 in 10.0 mi SSE 8.1 mph - N/A   Clear
2:15 AM 62.6 °F - 53.6 °F 72% 29.81 in 10.0 mi SSE 6.9 mph - N/A   Clear
2:35 AM 62.6 °F - 53.6 °F 72% 29.82 in 10.0 mi SSE 8.1 mph - N/A   Clear
2:55 AM 62.6 °F - 51.8 °F 68% 29.82 in 10.0 mi SSE 9.2 mph - N/A   Clear
3:15 AM 62.6 °F - 51.8 °F 68% 29.82 in 10.0 mi SSE 6.9 mph - N/A   Clear
3:35 AM 60.8 °F - 51.8 °F 72% 29.82 in 10.0 mi SSE 9.2 mph - N/A   Clear
3:55 AM 60.8 °F - 51.8 °F 72% 29.82 in 10.0 mi South 5.8 mph - N/A   Clear
4:15 AM 59.0 °F - 51.8 °F 77% 29.82 in 10.0 mi SSE 9.2 mph - N/A   Clear
4:35 AM 59.0 °F - 51.8 °F 77% 29.82 in 10.0 mi SSE 5.8 mph - N/A   Clear
4:55 AM 59.0 °F - 51.8 °F 77% 29.82 in 10.0 mi SSE 4.6 mph - N/A   Clear
5:15 AM 59.0 °F - 51.8 °F 77% 29.83 in 10.0 mi SSE 4.6 mph - N/A   Clear
5:35 AM 59.0 °F - 53.6 °F 82% 29.84 in 10.0 mi SSE 5.8 mph - N/A   Clear
5:55 AM 59.0 °F - 51.8 °F 77% 29.84 in 10.0 mi SSE 5.8 mph - N/A   Clear
6:15 AM 59.0 °F - 53.6 °F 82% 29.85 in 9.0 mi SSE 3.5 mph - N/A   Clear
6:35 AM 60.8 °F - 53.6 °F 77% 29.85 in 9.0 mi South 4.6 mph - N/A   Clear
6:55 AM 62.6 °F - 51.8 °F 68% 29.85 in 9.0 mi Calm Calm - N/A   Clear
7:15 AM 62.6 °F - 53.6 °F 72% 29.86 in 9.0 mi Calm Calm - N/A   Clear
7:35 AM 64.4 °F - 53.6 °F 68% 29.86 in 8.0 mi Calm Calm - N/A   Clear
7:55 AM 64.4 °F - 53.6 °F 68% 29.86 in 10.0 mi Calm Calm - N/A   Clear
8:15 AM 66.2 °F - 53.6 °F 64% 29.86 in 9.0 mi Calm Calm - N/A   Clear
8:35 AM 68.0 °F - 53.6 °F 60% 29.86 in 10.0 mi Calm Calm - N/A   Clear
8:55 AM 69.8 °F - 53.6 °F 56% 29.85 in 10.0 mi Calm Calm - N/A   Clear
9:15 AM 73.4 °F - 53.6 °F 50% 29.85 in 9.0 mi NE 3.5 mph - N/A   Clear
9:35 AM 73.4 °F - 53.6 °F 50% 29.85 in 8.0 mi North 4.6 mph - N/A   Clear
9:55 AM 77.0 °F - 55.4 °F 47% 29.84 in 9.0 mi NNW 4.6 mph - N/A   Clear
10:15 AM 78.8 °F - 55.4 °F 44% 29.83 in 10.0 mi WNW 5.8 mph - N/A   Clear
10:35 AM 82.4 °F 82.0 °F 57.2 °F 42% 29.83 in 10.0 mi NNW 6.9 mph - N/A   Clear
10:55 AM 84.2 °F 83.5 °F 57.2 °F 40% 29.83 in 10.0 mi NNW 10.4 mph - N/A   Clear
11:15 AM 84.2 °F 83.5 °F 57.2 °F 40% 29.82 in 9.0 mi WNW 8.1 mph 17.3 mph N/A   Clear
11:35 AM 86.0 °F 85.4 °F 59.0 °F 40% 29.82 in 10.0 mi WNW 9.2 mph 17.3 mph N/A   Clear
11:55 AM 86.0 °F 85.4 °F 59.0 °F 40% 29.82 in 9.0 mi WNW 8.1 mph - N/A   Clear
12:15 PM 87.8 °F 87.1 °F 59.0 °F 38% 29.81 in 10.0 mi NW 9.2 mph 16.1 mph N/A   Clear
12:35 PM 89.6 °F 89.5 °F 60.8 °F 38% 29.80 in 8.0 mi WNW 11.5 mph - N/A   Clear
12:55 PM 91.4 °F 91.4 °F 60.8 °F 36% 29.79 in 10.0 mi NNW 10.4 mph 16.1 mph N/A   Clear
1:15 PM 91.4 °F 91.4 °F 60.8 °F 36% 29.79 in 10.0 mi NW 11.5 mph - N/A   Clear
1:35 PM 93.2 °F 92.6 °F 59.0 °F 32% 29.78 in 9.0 mi NW 11.5 mph - N/A   Clear
1:55 PM 95.0 °F 94.4 °F 59.0 °F 30% 29.77 in 10.0 mi NNW 9.2 mph - N/A   Clear
2:15 PM 95.0 °F 96.0 °F 62.6 °F 34% 29.77 in 9.0 mi NW 9.2 mph 19.6 mph N/A   Clear
2:35 PM 96.8 °F 98.0 °F 62.6 °F 32% 29.76 in 10.0 mi NW 5.8 mph - N/A   Clear
2:55 PM 98.6 °F 100.0 °F 62.6 °F 30% 29.75 in 9.0 mi WNW 10.4 mph - N/A   Clear
3:15 PM 98.6 °F 100.0 °F 62.6 °F 30% 29.74 in 10.0 mi WNW 6.9 mph 16.1 mph N/A   Clear
3:35 PM 98.6 °F 100.0 °F 62.6 °F 30% 29.73 in 9.0 mi WNW 10.4 mph - N/A   Clear
3:55 PM 98.6 °F 100.0 °F 62.6 °F 30% 29.73 in 10.0 mi West 5.8 mph - N/A   Clear
4:15 PM 100.4 °F 102.4 °F 62.6 °F 29% 29.72 in 10.0 mi WNW 8.1 mph - N/A   Clear
4:35 PM 100.4 °F 102.4 °F 62.6 °F 29% 29.71 in 10.0 mi WNW 6.9 mph - N/A   Clear
4:55 PM 100.4 °F 102.4 °F 62.6 °F 29% 29.70 in 10.0 mi WNW 9.2 mph - N/A   Clear
5:15 PM 100.4 °F 101.3 °F 60.8 °F 27% 29.70 in 10.0 mi WNW 9.2 mph - N/A   Clear
5:35 PM 102.2 °F 102.4 °F 59.0 °F 24% 29.69 in 10.0 mi NW 10.4 mph - N/A   Clear
5:55 PM 102.2 °F 100.4 °F 53.6 °F 20% 29.68 in 10.0 mi North 9.2 mph - N/A   Clear
6:15 PM 102.2 °F - 51.8 °F 18% 29.68 in 9.0 mi NW 10.4 mph - N/A   Clear
6:35 PM 102.2 °F - 50.0 °F 17% 29.68 in 10.0 mi NNW 10.4 mph - N/A   Clear
6:55 PM 102.2 °F - 51.8 °F 18% 29.68 in 10.0 mi NNW 9.2 mph - N/A   Clear
7:15 PM 100.4 °F 99.7 °F 57.2 °F 24% 29.67 in 10.0 mi NW 9.2 mph - N/A   Clear
7:35 PM 98.6 °F 98.5 °F 59.0 °F 27% 29.68 in 10.0 mi NNW 5.8 mph - N/A   Clear
7:55 PM 98.6 °F 98.5 °F 59.0 °F 27% 29.68 in 10.0 mi NW 4.6 mph - N/A   Clear
8:15 PM 95.0 °F 96.0 °F 62.6 °F 34% 29.68 in 10.0 mi West 4.6 mph - N/A   Clear
8:35 PM 93.2 °F 94.9 °F 64.4 °F 38% 29.68 in 10.0 mi West 4.6 mph - N/A   Clear
8:55 PM 91.4 °F 93.2 °F 64.4 °F 41% 29.68 in 10.0 mi West 3.5 mph - N/A   Clear
9:15 PM 89.6 °F 91.1 °F 64.4 °F 43% 29.68 in 10.0 mi West 4.6 mph - N/A   Clear
9:35 PM 87.8 °F 88.5 °F 62.6 °F 43% 29.69 in 10.0 mi WSW 4.6 mph - N/A   Clear
9:55 PM 86.0 °F 86.1 °F 60.8 °F 43% 29.69 in 10.0 mi SSW 3.5 mph - N/A   Clear
10:15 PM 86.0 °F 86.6 °F 62.6 °F 45% 29.70 in 10.0 mi Calm Calm - N/A   Clear
10:35 PM 82.4 °F 83.4 °F 62.6 °F 51% 29.70 in 10.0 mi SSW 3.5 mph - N/A   Clear
10:55 PM 84.2 °F 83.8 °F 59.0 °F 42% 29.70 in 10.0 mi South 3.5 mph - N/A   Clear
11:15 PM 82.4 °F 82.5 °F 59.0 °F 45% 29.70 in 10.0 mi Calm Calm - N/A   Clear
11:35 PM 84.2 °F 83.8 °F 59.0 °F 42% 29.70 in 10.0 mi Calm Calm - N/A   Clear
11:55 PM 78.8 °F - 60.8 °F 54% 29.70 in 10.0 mi East 3.5 mph - N/A   Clear